Location: Greenwich
(51.4790°N, 0.0090°E)
Time: 14:39:09
(UTC+01:00)

Altair - Pass Details

Date: 21 June 2025
Orbit: 1502 x 1682 km, 47.2° (Epoch: 19 July)

Event Time Altitude Azimuth Distance (km) Brightness Sun altitude
Rises 01:43:55 0° 255° (WSW) 4,650 9.8 -14.5°
Reaches altitude 10° 01:46:55 10° 253° (WSW) 3,682 9.2 -14.4°
Maximum altitude 01:56:06 68° 173° (S) 1,654 7.4 -14.1°
Drops below altitude 10° 02:05:38 10° 93° (E) 3,813 9.7 -13.8°
Sets 02:08:49 0° 91° (E) 4,824 10.3 -13.6°
